Flag for Germany Weather past 2 weeks in Kaufbeuren, Bavaria, Germany

Now
30 °F

Snow flurries. More clouds than sun.


Feels Like: 19 °F
Forecast: 28 / 35 °F
Wind: 16 mph from West

Location: Altenstadt Airport

Current Time: Jan 27, 2015 at 3:31:39 PM

Latest Report: Jan 27, 2015 at 2:47 PM


Visibility: 4 mi

Pressure: 30.09 "Hg

Humidity: 86%

Dew point: 27 °F

Location of KaufbeurenLocation

Historic Weather in Kaufbeuren — Graph

°F

Kaufbeuren temperature yesterday

Maximum temperature yesterday: 32 °F (at 2:20 PM)
Minimum temperature yesterday: 23 °F (at 7:20 AM)
Average temperature yesterday: 28 °F

Past Weeks' High & Low Weather Summary

 TemperatureHumidityPressure
High52 °F (Jan 13, 1:20 PM)100% (Jan 14, 12:20 PM)30.33 "Hg (Jan 14, 12:20 PM)
Low18 °F (Jan 20, 3:20 AM)28% (Jan 13, 3:20 PM)29.65 "Hg (Jan 16, 4:20 PM)
Average31 °F86%29.96 "Hg
* Reported Jan 12 2:20 PM — Jan 27 2:20 PM, Kaufbeuren, Weather by CustomWeather, © 2014

Note: Actual official high and low records may vary slightly from our data, if they occured in-between our weather recording intervals... More about our weather records

Advertising

Kaufbeuren weather history for previous 24 hours

 ConditionsComfort  
Time TempWeatherWind HumidityBarometerVisibility
2:20 PM
Jan 27
30 °FSnow showers. More clouds than sun.13 mph93%30.09 "Hg1 mi
2:00 PM30 °FSnow flurries. More clouds than sun.14 mph86%30.09 "Hg3 mi
1:20 PM30 °FSnow flurries. Broken clouds.16 mph86%30.09 "Hg4 mi
12:58 PM30 °FSnow flurries. More clouds than sun.16 mph86%30.09 "Hg2 mi
12:20 PM32 °FSnow flurries. Broken clouds.16 mph80%30.12 "HgN/A
11:20 AM30 °FBroken clouds.18 mph86%30.12 "HgN/A
10:20 AM30 °FScattered showers. Broken clouds.17 mph86%30.09 "HgN/A
9:20 AM30 °FBroken clouds.13 mph86%30.09 "Hg5 mi
8:20 AM30 °FBroken clouds.10 mph93%30.09 "Hg5 mi
8:00 AM30 °FLight snow. Ice fog.12 mph93%30.09 "Hg1 mi
7:20 AM30 °FPartly cloudy.9 mph93%30.09 "Hg5 mi
6:20 AM32 °FLight snow. Partly cloudy.14 mph93%30.07 "Hg4 mi
5:20 AM32 °FLight snow. Ice fog.16 mph93%30.07 "Hg3 mi
4:20 AM30 °FChilly.17 mph100%30.04 "HgN/A
3:20 AM32 °FChilly.22 mph93%30.04 "HgN/A
2:20 AM32 °FChilly.20 mph93%30.01 "HgN/A
1:20 AM32 °FChilly.23 mph93%30.01 "HgN/A
12:20 AM32 °FChilly.22 mph93%30.01 "HgN/A
11:20 PM
Jan 26
32 °FChilly.23 mph93%30.04 "HgN/A
10:20 PM30 °FChilly.17 mph100%30.04 "HgN/A
9:20 PM28 °FChilly.10 mph100%30.07 "HgN/A
8:20 PM28 °FSnow. Ice fog.8 mph93%30.07 "Hg1 mi
8:01 PM28 °FSnow. Ice fog.7 mph93%30.09 "Hg1 mi
7:20 PM28 °FLight snow. Passing clouds.8 mph86%30.09 "Hg3 mi
7:04 PM28 °FLight snow. Overcast.8 mph86%30.09 "Hg4 mi
6:20 PM30 °FScattered showers. Passing clouds.9 mph75%30.09 "HgN/A
5:20 PM30 °FScattered showers. Partly cloudy.13 mph75%30.12 "HgN/A
4:20 PM28 °FPartly sunny.8 mph80%30.12 "HgN/A
3:20 PM30 °FPartly sunny.3 mph69%30.15 "HgN/A
Weather by CustomWeather, © 2014

See weather overviewHow to use our weather pages